Location: *
(51.0333°S, 178.4667°E)
Time: 08:03:55
(UTC+00:00)

Cosmos 1437 Rocket - Pass Details

Date: 15 November 2019
Orbit: 508 x 561 km, 81.2° (Epoch: 11 December)

Event Time Altitude Azimuth Distance (km) Brightness Sun altitude
Rises 11:14:56 0° 184° (S) 2,684 7.9 -20.1°
Reaches altitude 10° 11:17:22 10° 171° (S) 1,781 6.5 -20.1°
Maximum altitude 11:20:42 26° 113° (ESE) 1,060 4.4 -20.2°
Enters shadow 11:21:53 22° 83° (E) 1,171 4.3 -20.2°
